OK2ZEO-5 Weather Reports


time (UTC)temp
F
wind
direction
speed
knots
gust
knots
rain 1hr
in
rain 24hr
in
rain mn
in
humidity
%
barometer
mb
20260504223004 48 0 0.0 0.0 0.00 0.00 0.00 78 1013.4
20260504222717 49 0 0.0 0.0 0.00 0.00 0.00 78 1013.3
20260504222003 49 0 0.0 0.0 0.00 0.00 0.00 78 1013.4
20260504221719 49 0 0.0 0.0 0.00 0.00 0.00 78 1013.4
20260504221003 49 0 0.0 0.0 0.00 0.00 0.00 78 1013.5
20260504220717 49 0 0.0 0.0 0.00 0.00 0.00 78 1013.5
20260504220218 50 0 0.0 0.0 0.00 0.00 0.00 78 1013.6
20260504215503 50 0 0.0 0.0 0.00 0.00 0.00 78 1013.5
20260504215003 51 339 0.0 0.9 0.00 0.00 0.00 77 1013.5
20260504214503 52 339 0.0 0.9 0.00 0.00 0.00 77 1013.6
20260504214218 52 0 0.0 0.0 0.00 0.00 0.00 77 1013.6
20260504213503 52 0 0.0 0.0 0.00 0.00 0.00 77 1013.6
20260504213003 52 0 0.0 0.0 0.00 0.00 0.00 77 1013.6
20260504212503 52 0 0.0 0.0 0.00 0.00 0.00 77 1013.6
20260504212003 52 0 0.0 0.0 0.00 0.00 0.00 77 1013.7
20260504211503 53 0 0.0 0.0 0.00 0.00 0.00 76 1013.8
20260504211003 53 0 0.0 0.0 0.00 0.00 0.00 76 1013.8
20260504210716 53 0 0.0 0.0 0.00 0.00 0.00 76 1013.8
20260504210003 53 0 0.0 0.0 0.00 0.00 0.00 76 1013.8
20260504205503 54 0 0.0 0.0 0.00 0.00 0.00 75 1013.7
20260504205219 54 0 0.0 0.0 0.00 0.00 0.00 75 1013.8
20260504204504 55 0 0.0 0.0 0.00 0.00 0.00 75 1013.8
20260504204217 55 17 0.0 1.7 0.00 0.00 0.00 74 1013.8
20260504203503 55 17 0.0 1.7 0.00 0.00 0.00 74 1013.7
20260504203003 56 0 0.0 0.0 0.00 0.00 0.00 74 1013.8
20260504202716 56 0 0.0 0.0 0.00 0.00 0.00 73 1013.7
20260504202003 56 0 0.0 0.0 0.00 0.00 0.00 72 1013.7
20260504201503 56 0 0.0 0.0 0.00 0.00 0.00 72 1013.7
20260504201003 56 0 0.0 0.0 0.00 0.00 0.00 72 1013.8
20260504200503 57 0 0.0 0.0 0.00 0.00 0.00 72 1013.7
20260504200217 57 0 0.0 0.0 0.00 0.00 0.00 71 1013.7
20260504195503 57 0 0.0 0.0 0.00 0.00 0.00 71 1013.7
20260504195219 57 0 0.0 0.0 0.00 0.00 0.00 71 1013.6
20260504194503 58 0 0.0 0.0 0.00 0.00 0.00 70 1013.8
20260504194217 58 0 0.0 0.0 0.00 0.00 0.00 69 1013.8
20260504193503 59 0 0.0 0.0 0.00 0.00 0.00 68 1013.7
20260504193003 59 0 0.0 0.0 0.00 0.00 0.00 67 1013.7
20260504192503 60 0 0.0 0.0 0.00 0.00 0.00 66 1013.7
20260504192003 61 0 0.0 0.0 0.00 0.00 0.00 64 1013.7
20260504191503 61 0 0.0 0.0 0.00 0.00 0.00 63 1013.6
20260504191003 62 0 0.0 0.0 0.00 0.00 0.00 61 1013.6
20260504190503 63 0 0.0 0.0 0.00 0.00 0.00 59 1013.5
20260504190003 64 0 0.0 0.0 0.00 0.00 0.00 56 1013.5
20260504185503 66 0 0.0 0.0 0.00 0.00 0.00 54 1013.5
20260504185003 67 0 0.0 0.0 0.00 0.00 0.00 51 1013.4
20260504184503 67 0 0.0 0.0 0.00 0.00 0.00 49 1013.4
20260504184003 68 0 0.0 0.0 0.00 0.00 0.00 47 1013.4
20260504183503 68 0 0.0 0.0 0.00 0.00 0.00 46 1013.3
20260504183003 68 0 0.0 0.0 0.00 0.00 0.00 46 1013.2
20260504182719 68 0 0.0 0.0 0.00 0.00 0.00 46 1013.2
20260504182003 69 0 0.0 0.0 0.00 0.00 0.00 46 1013.2
20260504181503 69 0 0.0 0.0 0.00 0.00 0.00 46 1013.2
20260504181003 69 129 0.0 3.5 0.00 0.00 0.00 46 1013.1
20260504180504 69 133 0.9 3.5 0.00 0.00 0.00 45 1013.1
20260504180003 69 133 0.9 3.5 0.00 0.00 0.00 45 1013.1
20260504175503 70 129 0.0 2.6 0.00 0.00 0.00 45 1013.1
20260504175003 70 128 0.0 3.5 0.00 0.00 0.00 45 1013.1
20260504174503 70 127 0.0 3.5 0.00 0.00 0.00 44 1013.1
20260504174216 71 127 0.9 6.1 0.00 0.00 0.00 44 1013.1
20260504173503 71 127 0.9 6.1 0.00 0.00 0.00 44 1013.0
20260504173003 72 130 0.9 6.1 0.00 0.00 0.00 43 1013.0
20260504172503 72 129 1.7 7.0 0.00 0.00 0.00 42 1013.0
20260504172003 72 128 2.6 7.8 0.00 0.00 0.00 42 1013.0
20260504171503 72 128 2.6 7.8 0.00 0.00 0.00 42 1013.1
20260504171004 73 129 2.6 8.7 0.00 0.00 0.00 42 1013.0
20260504170503 73 128 3.5 8.7 0.00 0.00 0.00 41 1013.0
20260504150503 75 179 1.7 8.7 0.00 0.00 0.00 40 1013.3
20260504141003 75 188 4.3 12.2 0.00 0.00 0.00 41 1013.7
20260504140718 76 190 3.5 12.2 0.00 0.00 0.00 40 1013.7
20260504130503 75 175 3.5 12.2 0.00 0.00 0.00 42 1014.3
20260504110717 74 142 2.6 11.3 0.00 0.00 0.00 40 1015.0
20260504100503 70 174 0.9 8.7 0.00 0.00 0.00 44 1015.8
20260504082003 66 117 3.5 9.6 0.00 0.00 0.00 48 1016.0
20260504081503 66 119 4.3 10.4 0.00 0.00 0.00 49 1016.0
20260504081219 66 119 5.2 10.4 0.00 0.00 0.00 48 1016.0
20260504080503 65 121 4.3 9.6 0.00 0.00 0.00 47 1016.1
20260504080216 65 120 4.3 9.6 0.00 0.00 0.00 48 1015.9
20260504060215 57 0 0.0 0.0 0.00 0.00 0.00 60 1016.3
20260504050503 44 0 0.0 0.0 0.00 0.00 0.00 78 1016.4
20260504050003 44 0 0.0 0.0 0.00 0.00 0.00 78 1016.3
20260504045503 43 0 0.0 0.0 0.00 0.00 0.00 78 1016.4
20260504045003 43 0 0.0 0.0 0.00 0.00 0.00 79 1016.4
20260504044504 42 0 0.0 0.0 0.00 0.00 0.00 78 1016.3
20260504044003 42 0 0.0 0.0 0.00 0.00 0.00 78 1016.2
20260504043503 41 0 0.0 0.0 0.00 0.00 0.00 78 1016.1
20260504043003 41 0 0.0 0.0 0.00 0.00 0.00 78 1016.2
20260504042503 41 359 0.0 4.3 0.00 0.00 0.00 78 1016.2
20260504042219 41 355 0.0 4.3 0.00 0.00 0.00 78 1016.2
20260504041716 40 351 0.0 4.3 0.00 0.00 0.00 78 1016.2
20260504041003 40 329 0.0 0.9 0.00 0.00 0.00 78 1016.1
20260504040503 40 329 0.0 0.9 0.00 0.00 0.00 78 1016.2
20260504040003 40 329 0.0 0.9 0.00 0.00 0.00 78 1016.3
20260504035503 40 329 0.0 0.9 0.00 0.00 0.00 78 1016.3
20260504035003 40 329 0.0 0.9 0.00 0.00 0.00 78 1016.3
20260504034503 40 0 0.0 0.0 0.00 0.00 0.00 78 1016.3
20260504034003 40 0 0.0 0.0 0.00 0.00 0.00 78 1016.4
20260504033504 40 329 0.0 1.7 0.00 0.00 0.00 78 1016.3
20260504033003 40 329 0.0 1.7 0.00 0.00 0.00 78 1016.4
20260504032503 40 328 0.0 0.9 0.00 0.00 0.00 78 1016.4
20260504032003 40 328 0.0 0.9 0.00 0.00 0.00 77 1016.5
20260504031503 39 0 0.0 0.0 0.00 0.00 0.00 78 1016.4
20260504031003 39 0 0.0 0.0 0.00 0.00 0.00 78 1016.4
20260504030503 39 0 0.0 0.0 0.00 0.00 0.00 78 1016.4
20260504030003 39 0 0.0 0.0 0.00 0.00 0.00 78 1016.3
20260504025503 39 327 0.0 0.9 0.00 0.00 0.00 78 1016.3
20260504025216 39 325 0.0 2.6 0.00 0.00 0.00 78 1016.3
20260504024503 39 325 0.0 2.6 0.00 0.00 0.00 78 1016.4
20260504024218 39 319 0.0 1.7 0.00 0.00 0.00 78 1016.4
20260504023503 40 318 0.0 1.7 0.00 0.00 0.00 79 1016.3
20260504023216 40 318 0.0 1.7 0.00 0.00 0.00 79 1016.4
20260504022503 40 0 0.0 0.0 0.00 0.00 0.00 78 1016.4
20260504022218 40 0 0.0 0.0 0.00 0.00 0.00 78 1016.4
20260504021503 40 0 0.0 0.0 0.00 0.00 0.00 78 1016.4
20260504021003 40 0 0.0 0.0 0.00 0.00 0.00 78 1016.5
20260504020503 40 318 0.0 0.9 0.00 0.00 0.00 78 1016.4
20260504020003 40 318 0.0 0.9 0.00 0.00 0.00 78 1016.4
20260504015503 40 318 0.0 0.9 0.00 0.00 0.00 79 1016.4
20260504015003 40 318 0.0 0.9 0.00 0.00 0.00 78 1016.4
20260504014717 40 318 0.0 0.9 0.00 0.00 0.00 78 1016.4
20260504014003 40 318 0.0 0.9 0.00 0.00 0.00 78 1016.4
20260504013503 40 0 0.0 0.0 0.00 0.00 0.00 78 1016.5
20260504013003 40 0 0.0 0.0 0.00 0.00 0.00 78 1016.4
20260504012504 40 0 0.0 0.0 0.00 0.00 0.00 79 1016.4
20260504012003 41 0 0.0 0.0 0.00 0.00 0.00 79 1016.4
20260504011504 41 0 0.0 0.0 0.00 0.00 0.00 78 1016.3
20260504011003 41 318 0.0 0.9 0.00 0.00 0.00 79 1016.4
20260504010503 41 318 0.0 0.9 0.00 0.00 0.00 78 1016.3
20260504010003 41 318 0.0 0.9 0.00 0.00 0.00 78 1016.3
20260504005719 42 318 0.0 0.9 0.00 0.00 0.00 78 1016.3
20260504005003 42 0 0.0 0.0 0.00 0.00 0.00 78 1016.2
20260504004504 42 0 0.0 0.0 0.00 0.00 0.00 78 1016.3
20260504004003 42 0 0.0 0.0 0.00 0.00 0.00 78 1016.3
20260504003503 42 0 0.0 0.0 0.00 0.00 0.00 78 1016.3
20260504003003 42 0 0.0 0.0 0.00 0.00 0.00 78 1016.3
20260504002503 42 0 0.0 0.0 0.00 0.00 0.00 78 1016.3
20260504002003 42 0 0.0 0.0 0.00 0.00 0.00 78 1016.2
20260504001503 42 0 0.0 0.0 0.00 0.00 0.00 78 1016.3
20260504001003 42 0 0.0 0.0 0.00 0.00 0.00 78 1016.3
20260504000503 43 0 0.0 0.0 0.00 0.00 0.00 78 1016.4
20260504000003 43 0 0.0 0.0 0.00 0.00 0.00 78 1016.4
20260503235503 43 0 0.0 0.0 0.00 0.00 0.00 78 1016.4
20260503235003 43 0 0.0 0.0 0.00 0.00 0.00 78 1016.5
20260503234504 44 0 0.0 0.0 0.00 0.00 0.00 77 1016.5
20260503234003 44 0 0.0 0.0 0.00 0.00 0.00 77 1016.4
20260503233503 44 0 0.0 0.0 0.00 0.00 0.00 77 1016.4
20260503233003 45 0 0.0 0.0 0.00 0.00 0.00 76 1016.5
20260503232503 45 0 0.0 0.0 0.00 0.00 0.00 76 1016.5
20260503232003 45 0 0.0 0.0 0.00 0.00 0.00 76 1016.5
20260503231503 45 0 0.0 0.0 0.00 0.00 0.00 76 1016.5
20260503231003 45 0 0.0 0.0 0.00 0.00 0.00 76 1016.5
20260503230503 45 0 0.0 0.0 0.00 0.00 0.00 76 1016.5
20260503230004 46 0 0.0 0.0 0.00 0.00 0.00 75 1016.5
20260503225503 46 0 0.0 0.0 0.00 0.00 0.00 74 1016.5
20260503225003 46 231 0.0 0.9 0.00 0.00 0.00 74 1016.6
20260503224503 47 231 0.0 0.9 0.00 0.00 0.00 73 1016.5
20260503224003 47 0 0.0 0.0 0.00 0.00 0.00 72 1016.5
20260503223503 48 0 0.0 0.0 0.00 0.00 0.00 71 1016.5